Temperature
16 16 16 16 16 15 15 15 15 15 15 15 15 15 15 15 15 15 15 15 14 14 14 14 14 14 14 14 14 14 14 13 13 13 13 13 13 13
16 16 16 16 15 15 15 15 15 15 14 14 14 14 14 14 14 14 14 14 14 14 14 14 14 13 13 13 13 13 13 13 13 13 13 13 12 12
16 16 15 15 15 15 15 15 15 15 14 14 14 14 14 14 14 14 14 14 14 14 13 13 13 13 13 13 13 13 13 13 13 12 12 12 12 12
16 16 15 15 15 15 15 15 14 14 14 14 14 13 13 13 13 13 13 13 13 13 13 13 13 13 12 12 12 12 12 12 12 12 12 12 12 12
16 15 15 15 15 15 14 14 14 14 14 14 13 13 13 12 12 12 12 12 12 12 12 12 12 12 12 12 12 12 12 12 12 11 11 11 11 11
15 15 15 15 14 14 14 14 14 14 13 13 13 12 12 12 12 12 12 12 12 12 12 12 12 11 11 11 11 11 11 11 11 11 11 11 11 11
15 15 15 14 14 14 14 14 14 13 13 13 12 12 12 12 12 11 11 11 11 11 11 11 11 11 11 11 11 11 11 10 10 10 10 10 10 10
15 15 14 14 14 14 14 13 13 13 13 13 12 12 12 12 11 11 11 11 10 10 10 10 10 10 10 10 10 10 10 10 10 10 10 10 10 10
14 14 14 14 14 14 13 13 13 13 12 12 12 12 12 11 11 11 11 11 10 10 10 10 10 10 10 10 10 10 10 10 9 9 9 9 9 9
14 14 14 13 13 13 13 13 13 12 12 12 12 12 11 11 11 11 10 10 10 10 10 9 10 10 10 10 10 9 9 9 9 9 9 9 9 9
13 13 13 13 13 13 13 13 12 12 12 12 11 11 11 11 11 10 10 10 10 10 9 9 9 9 10 9 9 9 9 9 9 9 9 9 9 8
13 13 13 13 12 12 12 12 12 12 11 11 11 11 11 10 10 10 10 10 9 9 9 9 9 9 9 9 9 9 9 9 8 8 8 8 8 8
13 12 12 12 12 12 12 12 11 11 11 11 10 10 10 10 10 10 9 9 9 9 9 9 9 9 8 8 9 8 8 8 8 8 8 8 8 8
12 12 12 12 11 11 11 11 11 10 10 10 10 10 10 10 9 9 9 9 9 9 9 9 9 8 8 8 8 8 8 8 8 8 8 7 7 7
12 11 11 11 11 11 10 10 10 10 10 10 10 10 9 9 9 9 9 9 9 9 8 8 8 8 8 8 8 8 8 8 8 7 7 7 7 7
11 11 11 11 10 10 10 10 10 10 10 9 9 9 9 9 9 9 9 8 8 8 8 8 8 8 8 8 8 7 7 7 7 7 7 7 7 7
11 11 10 10 10 10 10 10 10 9 9 9 9 9 9 9 9 8 8 8 8 8 8 8 8 8 7 7 7 7 7 7 7 7 7 7 7 7
11 10 10 10 10 10 10 10 9 9 9 9 9 9 9 8 8 8 8 8 8 8 7 7 7 7 7 7 7 7 7 7 7 7 6 6 6 6
10 10 10 10 10 10 9 9 9 9 9 8 8 8 8 8 8 8 8 8 7 7 7 7 7 7 7 6 7 7 6 6 6 6 6 6 6 6
10 10 10 9 9 9 9 9 9 8 8 8 8 8 8 8 7 7 7 7 7 7 7 7 7 7 6 6 6 6 6 6 6 6 6 6 6 6
10 10 9 9 9 9 9 9 9 8 8 8 8 8 7 7 7 7 7 7 7 7 7 7 7 7 6 6 6 6 6 6 6 6 6 6 5 5
9 9 9 9 9 8 8 8 8 8 8 8 8 7 7 7 7 7 7 7 7 7 7 7 6 6 6 6 6 6 6 6 6 6 6 5 5 5
9 9 9 8 8 8 8 8 8 8 8 7 7 7 7 7 7 7 7 6 7 6 6 6 6 6 6 6 6 6 6 6 6 6 6 5 5 5
Wind_Speed
2 2 2 2 3 3 3 3 3 3 3 2 1 1 1 1 1 1 0 1 1 0 1 1 2 2 2 3 3 3 3 4 4 5 6 7 8 9
2 2 2 2 2 2 3 2 3 3 3 1 1 1 1 1 2 2 2 2 2 2 2 1 1 1 1 2 2 3 3 3 3 3 4 5 5 6
2 2 2 2 2 2 2 2 2 3 3 1 0 0 1 1 3 3 3 3 3 3 3 2 2 2 2 2 2 3 3 3 3 3 3 4 4 4
2 2 2 1 1 2 2 2 2 3 3 3 1 0 1 1 2 2 3 4 3 4 4 3 3 3 2 2 3 3 3 3 3 2 3 3 3 4
2 2 2 2 2 1 2 2 2 2 2 3 2 1 0 1 2 2 3 3 3 4 4 4 4 4 3 3 3 3 3 4 3 2 2 2 2 3
0 1 1 2 2 2 2 2 2 2 3 3 2 1 1 0 1 1 1 2 2 3 3 3 4 4 4 3 3 3 3 3 2 2 2 2 2 3
0 0 0 1 2 2 2 3 3 3 3 3 2 2 1 1 1 0 0 1 1 1 2 2 2 2 2 2 3 3 2 2 2 2 3 3 2 2
0 0 0 0 1 2 2 3 4 4 4 3 2 3 2 2 1 1 1 0 1 1 1 2 2 1 1 1 1 2 1 1 2 2 2 2 2 2
1 0 0 1 1 1 2 2 3 3 4 4 4 4 4 4 3 2 2 1 1 1 1 1 1 2 2 1 1 0 1 1 1 1 1 1 1 2
1 1 1 1 1 2 3 3 2 1 1 2 3 3 3 3 4 3 2 1 0 0 1 1 2 2 2 2 2 2 2 2 2 1 1 2 2 2
1 1 1 1 2 3 4 3 3 2 3 3 3 2 3 4 5 3 2 1 1 1 1 1 1 2 2 2 2 3 3 3 3 3 3 3 3 3
1 2 3 3 3 4 4 3 3 1 2 3 3 3 3 4 5 4 3 2 1 1 1 1 1 1 1 1 2 2 3 4 4 4 4 4 3 2
1 1 1 3 4 4 4 3 2 2 2 3 3 3 2 2 1 2 2 2 2 2 2 2 1 1 1 1 2 2 2 2 3 4 5 5 4 4
2 1 1 3 4 4 3 3 4 4 3 3 3 2 1 0 0 1 2 2 2 2 4 4 2 2 2 2 2 1 2 3 3 3 3 4 5 6
2 2 2 3 3 3 3 4 4 3 3 2 1 0 1 1 0 0 0 0 1 0 2 4 2 2 2 2 2 2 2 2 3 3 3 3 3 3
2 2 3 4 3 3 3 2 2 1 2 1 0 0 1 1 1 1 0 0 1 1 1 2 3 2 2 3 3 2 2 2 2 3 3 3 4 4
3 2 2 2 1 1 1 1 1 1 1 0 0 0 0 0 0 1 1 1 0 1 2 2 2 3 3 3 3 4 3 3 3 2 2 3 4 5
4 2 1 1 1 1 1 1 1 1 1 1 1 1 1 1 1 1 1 1 2 2 2 2 1 1 2 3 5 4 4 4 3 3 3 3 4 4
3 2 2 2 2 2 3 3 2 2 2 2 2 2 2 1 1 1 1 2 3 3 3 2 1 1 3 5 3 5 4 3 3 3 3 3 4 4
2 3 3 3 3 3 3 3 3 2 2 2 3 3 3 3 3 2 3 3 3 3 3 3 3 3 5 5 4 3 6 5 3 3 3 3 3 4
4 4 4 3 3 3 3 3 3 3 3 3 3 3 3 3 4 4 4 4 4 4 5 5 5 6 4 2 3 3 3 6 7 4 3 2 2 2
4 4 4 3 3 3 3 3 3 3 3 4 4 4 4 4 5 5 5 5 5 5 6 4 3 2 2 3 5 5 4 3 5 6 6 5 3 4
4 4 3 3 3 2 2 3 3 3 3 4 4 4 4 4 5 5 5 5 5 5 4 3 2 2 3 4 5 5 5 3 2 2 3 6 9 10
Wind_Direction
234 227 227 231 213 209 200 191 196 229 246 224 208 29 26 29 12 48 97 85 94 107 195 205 211 215 219 223 227 218 210 217 219 219 215 213 219 223
226 218 232 234 209 202 199 200 199 207 231 227 228 343 42 35 29 44 54 55 74 72 84 118 144 157 162 163 162 166 170 180 185 190 193 201 207 209
228 216 238 224 205 199 185 185 189 186 212 233 231 12 59 52 41 44 48 59 68 75 80 87 98 103 111 126 133 145 160 165 170 173 179 185 194 200
232 213 230 199 192 191 182 191 200 194 187 196 205 135 66 71 56 49 48 53 63 66 64 69 79 81 89 108 124 136 143 151 150 157 173 183 196 200
217 202 206 177 187 189 184 190 194 186 176 171 175 143 87 86 56 43 39 38 51 52 51 61 69 73 73 87 107 125 135 135 137 151 164 183 200 201
174 183 193 191 200 194 188 191 176 165 153 149 145 145 142 127 110 56 13 11 17 24 43 48 57 59 61 72 83 99 117 124 129 137 150 166 174 189
70 186 162 165 172 179 185 187 174 168 160 158 157 152 167 173 196 188 254 339 351 14 19 23 32 37 35 51 78 84 91 99 109 120 133 136 141 156
232 292 21 182 152 142 143 161 167 169 172 167 175 186 205 203 177 167 161 302 294 321 316 332 357 342 350 11 57 78 94 114 123 127 135 137 138 146
166 140 86 65 114 122 123 121 127 143 166 169 182 199 200 198 184 187 201 218 250 251 246 280 309 309 303 297 290 252 210 187 194 191 192 193 193 186
117 136 136 72 97 122 118 105 95 93 166 175 190 199 197 188 191 194 189 167 314 277 222 257 285 289 293 280 261 246 242 241 244 243 249 239 230 220
78 85 103 93 82 116 120 113 87 53 63 84 104 124 141 150 151 133 131 144 259 275 235 248 271 291 290 276 270 253 250 246 242 244 247 246 246 237
60 57 65 76 88 107 120 121 107 70 72 74 77 83 103 126 145 162 167 173 193 230 208 218 235 273 277 270 268 264 257 258 252 247 244 247 244 230
111 64 51 79 91 95 103 111 131 118 101 95 83 73 73 88 128 174 190 188 197 230 197 193 203 222 244 275 287 266 252 263 262 257 255 255 242 222
145 140 107 103 101 94 91 85 94 99 98 92 84 75 65 30 293 218 206 217 241 241 200 189 197 207 218 249 269 285 269 254 250 259 265 264 253 243
124 110 104 101 98 89 83 93 102 102 104 100 99 40 295 288 351 18 130 250 315 349 176 195 210 207 216 230 246 265 273 266 245 259 263 258 257 252
112 98 96 90 87 80 79 80 91 113 130 144 192 320 25 62 79 70 60 13 334 320 300 222 211 208 227 243 240 254 254 259 260 257 263 263 257 242
132 98 84 83 84 68 66 68 83 89 103 350 109 55 38 32 353 6 32 38 299 298 312 316 262 233 239 240 251 257 261 264 264 252 254 268 268 252
136 140 166 184 196 212 224 228 216 218 225 221 217 226 239 252 282 325 335 277 272 276 285 297 319 308 279 256 233 255 262 265 265 250 243 254 267 263
156 192 209 222 230 230 229 228 233 237 226 219 225 234 238 240 246 255 257 267 269 273 276 276 267 256 279 288 270 224 252 270 262 255 248 246 261 272
201 215 222 228 233 236 236 236 240 236 225 229 235 239 236 234 239 248 245 252 259 267 274 272 258 248 251 266 275 272 235 243 252 251 257 258 266 275
214 224 230 232 235 238 238 237 236 236 236 235 242 244 239 236 243 246 247 247 248 254 261 264 263 253 254 260 275 284 274 235 233 237 232 240 260 265
222 224 229 233 235 236 236 238 242 243 241 242 245 245 241 238 245 249 248 249 250 252 258 267 274 244 227 244 267 279 285 293 257 245 238 232 236 246
228 226 229 233 238 238 236 240 247 252 250 248 248 249 246 244 248 250 251 252 256 258 261 270 268 245 246 248 260 271 277 288 292 277 270 256 250 257
Height
1547 1546 1546 1546 1546 1547 1547 1548 1549 1548 1547 1548 1548 1548 1548 1548 1548 1547 1546 1546 1546 1546 1546 1546 1546 1546 1546 1546 1546 1546 1546 1547 1547 1547 1548 1549 1549 1550
1543 1543 1542 1543 1543 1543 1544 1544 1545 1545 1544 1544 1545 1545 1545 1545 1544 1544 1543 1543 1543 1543 1542 1542 1542 1542 1542 1542 1542 1542 1542 1543 1543 1543 1543 1544 1545 1546
1540 1540 1539 1540 1540 1540 1540 1540 1541 1541 1541 1541 1541 1542 1542 1542 1541 1541 1540 1540 1540 1540 1539 1539 1539 1539 1538 1538 1538 1538 1538 1539 1539 1539 1540 1540 1541 1541
1538 1537 1537 1537 1537 1537 1537 1537 1537 1537 1537 1537 1538 1538 1539 1539 1539 1538 1538 1538 1537 1537 1536 1536 1536 1536 1535 1535 1535 1535 1535 1535 1536 1536 1536 1536 1536 1537
1535 1535 1534 1534 1533 1533 1534 1534 1534 1534 1534 1534 1534 1535 1536 1536 1536 1536 1536 1535 1535 1535 1534 1534 1534 1533 1533 1532 1532 1532 1532 1532 1533 1533 1533 1533 1533 1533
1533 1532 1532 1531 1531 1531 1531 1531 1531 1531 1531 1531 1531 1532 1533 1533 1534 1533 1533 1533 1533 1533 1532 1532 1531 1531 1531 1530 1530 1530 1530 1530 1530 1530 1530 1530 1530 1530
1531 1530 1529 1529 1528 1528 1528 1528 1528 1528 1528 1528 1529 1529 1530 1530 1531 1531 1531 1531 1531 1530 1530 1530 1529 1529 1529 1528 1528 1527 1527 1527 1527 1527 1527 1527 1527 1527
1529 1528 1527 1526 1526 1526 1525 1525 1525 1525 1525 1526 1526 1527 1527 1528 1528 1528 1528 1528 1528 1529 1528 1528 1528 1527 1527 1526 1526 1525 1525 1525 1525 1524 1524 1524 1524 1524
1526 1526 1525 1524 1524 1523 1523 1523 1523 1523 1524 1524 1524 1524 1525 1525 1525 1526 1526 1526 1526 1526 1526 1525 1526 1525 1525 1524 1524 1524 1523 1523 1523 1522 1522 1522 1521 1521
1524 1523 1523 1522 1522 1522 1521 1521 1521 1522 1522 1522 1523 1523 1523 1523 1523 1524 1524 1524 1524 1524 1524 1524 1523 1523 1523 1522 1522 1522 1521 1521 1521 1520 1520 1519 1519 1518
1522 1522 1521 1521 1521 1520 1520 1520 1520 1520 1521 1521 1521 1521 1521 1521 1521 1521 1521 1521 1521 1522 1522 1522 1521 1521 1521 1520 1520 1520 1519 1519 1518 1518 1517 1517 1516 1516
1520 1520 1520 1520 1520 1519 1519 1519 1519 1519 1519 1519 1520 1520 1519 1519 1519 1520 1520 1520 1519 1520 1520 1520 1519 1519 1519 1518 1518 1518 1517 1517 1516 1515 1515 1514 1514 1513
1518 1518 1519 1518 1518 1518 1518 1518 1518 1518 1518 1518 1518 1518 1518 1518 1518 1518 1518 1518 1518 1518 1518 1518 1517 1517 1517 1516 1516 1515 1515 1514 1514 1513 1512 1512 1511 1511
1517 1518 1518 1517 1517 1517 1517 1517 1518 1517 1517 1517 1517 1517 1517 1517 1517 1517 1517 1516 1517 1517 1516 1516 1515 1515 1514 1514 1513 1513 1512 1512 1511 1510 1510 1509 1508 1508
1516 1517 1517 1517 1516 1516 1516 1516 1517 1516 1516 1516 1516 1516 1516 1516 1515 1515 1515 1515 1515 1514 1514 1513 1513 1512 1512 1511 1511 1510 1510 1509 1508 1507 1506 1506 1505 1504
1515 1515 1516 1516 1516 1516 1515 1515 1515 1515 1515 1515 1515 1515 1514 1514 1514 1513 1513 1512 1512 1512 1512 1511 1510 1510 1509 1508 1508 1507 1507 1506 1505 1504 1504 1503 1502 1501
1514 1514 1514 1514 1514 1514 1514 1514 1514 1514 1514 1514 1513 1513 1513 1512 1512 1512 1511 1511 1510 1509 1509 1509 1508 1507 1507 1506 1505 1504 1503 1502 1502 1501 1500 1499 1499 1498
1512 1512 1512 1512 1512 1512 1512 1512 1512 1512 1512 1512 1512 1511 1511 1511 1510 1510 1510 1509 1508 1507 1507 1506 1505 1504 1504 1503 1502 1500 1500 1499 1498 1497 1496 1496 1495 1495
1509 1510 1510 1510 1510 1510 1510 1510 1510 1510 1510 1510 1510 1509 1509 1508 1508 1508 1507 1506 1506 1505 1504 1504 1503 1502 1500 1499 1498 1498 1496 1495 1494 1493 1493 1492 1492 1492
1506 1507 1508 1508 1508 1508 1508 1508 1508 1508 1508 1507 1507 1507 1506 1506 1505 1505 1504 1504 1503 1502 1502 1501 1500 1499 1498 1497 1496 1495 1494 1492 1491 1490 1490 1489 1489 1489
1504 1504 1505 1505 1505 1505 1505 1505 1505 1505 1505 1504 1504 1503 1503 1503 1502 1502 1501 1501 1500 1499 1498 1497 1497 1496 1495 1494 1493 1491 1491 1490 1489 1487 1487 1486 1485 1485
1501 1501 1502 1502 1502 1502 1502 1502 1502 1501 1501 1501 1500 1500 1499 1499 1498 1498 1497 1497 1496 1495 1494 1494 1493 1493 1491 1490 1489 1488 1487 1486 1486 1485 1484 1483 1482 1481
1498 1498 1498 1498 1498 1498 1498 1498 1498 1497 1497 1496 1496 1495 1495 1494 1494 1493 1493 1492 1492 1491 1490 1490 1489 1488 1487 1486 1485 1484 1483 1483 1482 1481 1481 1480 1480 1479